owner,sensor,date,latitude,longitude,vertical_datum,sea_water_practical_salinity,qcFlag 
WAVCIS,ioos:station:WAVCIS:CSI16:2,2009-07-01T00:00:00Z,29.4012,-89.0355,1.0,34.941,11111222 
WAVCIS,ioos:station:WAVCIS:CSI16:2,2009-07-01T00:15:00Z,29.4012,-89.0355,1.0,34.885,11111222 
WAVCIS,ioos:station:WAVCIS:CSI16:2,2009-07-01T00:30:00Z,29.4012,-89.0355,1.0,35.084,11111222 
WAVCIS,ioos:station:WAVCIS:CSI16:2,2009-07-01T00:45:00Z,29.4012,-89.0355,1.0,35.156,11111222 
WAVCIS,ioos:station:WAVCIS:CSI16:2,2009-07-01T01:00:00Z,29.4012,-89.0355,1.0,34.996,11111222 
WAVCIS,ioos:station:WAVCIS:CSI16:2,2009-07-01T01:15:00Z,29.4012,-89.0355,1.0,35.039,11111222 
WAVCIS,ioos:station:WAVCIS:CSI16:2,2009-07-01T01:30:00Z,29.4012,-89.0355,1.0,34.929,11111222 
WAVCIS,ioos:station:WAVCIS:CSI16:2,2009-07-01T01:45:00Z,29.4012,-89.0355,1.0,35.081,11111222 
WAVCIS,ioos:station:WAVCIS:CSI16:2,2009-07-01T02:00:00Z,29.4012,-89.0355,1.0,35.088,11111222 
WAVCIS,ioos:station:WAVCIS:CSI16:2,2009-07-01T02:15:00Z,29.4012,-89.0355,1.0,34.572,11111222 
WAVCIS,ioos:station:WAVCIS:CSI16:2,2009-07-01T02:30:00Z,29.4012,-89.0355,1.0,34.919,11111222 
WAVCIS,ioos:station:WAVCIS:CSI16:2,2009-07-01T02:45:00Z,29.4012,-89.0355,1.0,34.988,11111222 
WAVCIS,ioos:station:WAVCIS:CSI16:2,2009-07-01T03:00:00Z,29.4012,-89.0355,1.0,35.192,11111222 
WAVCIS,ioos:station:WAVCIS:CSI16:2,2009-07-01T03:15:00Z,29.4012,-89.0355,1.0,35.06,11111222 
WAVCIS,ioos:station:WAVCIS:CSI16:2,2009-07-01T03:30:00Z,29.4012,-89.0355,1.0,34.995,11111222 
WAVCIS,ioos:station:WAVCIS:CSI16:2,2009-07-01T03:45:00Z,29.4012,-89.0355,1.0,35.046,11111222 
WAVCIS,ioos:station:WAVCIS:CSI16:2,2009-07-01T04:00:00Z,29.4012,-89.0355,1.0,35.079,11111222 
WAVCIS,ioos:station:WAVCIS:CSI16:2,2009-07-01T04:15:00Z,29.4012,-89.0355,1.0,35.168,11111222 
WAVCIS,ioos:station:WAVCIS:CSI16:2,2009-07-01T04:30:00Z,29.4012,-89.0355,1.0,35.217,11111222 
WAVCIS,ioos:station:WAVCIS:CSI16:2,2009-07-01T04:45:00Z,29.4012,-89.0355,1.0,35.188,11111222 
WAVCIS,ioos:station:WAVCIS:CSI16:2,2009-07-01T05:00:00Z,29.4012,-89.0355,1.0,35.176,11111222 
WAVCIS,ioos:station:WAVCIS:CSI16:2,2009-07-01T05:15:00Z,29.4012,-89.0355,1.0,35.167,11111222 
WAVCIS,ioos:station:WAVCIS:CSI16:2,2009-07-01T05:30:00Z,29.4012,-89.0355,1.0,35.284,11111222 
WAVCIS,ioos:station:WAVCIS:CSI16:2,2009-07-01T05:45:00Z,29.4012,-89.0355,1.0,35.287,11111222 
WAVCIS,ioos:station:WAVCIS:CSI16:2,2009-07-01T06:00:00Z,29.4012,-89.0355,1.0,35.289,11111222 
WAVCIS,ioos:station:WAVCIS:CSI16:2,2009-07-01T06:15:00Z,29.4012,-89.0355,1.0,35.291,11111222 
WAVCIS,ioos:station:WAVCIS:CSI16:2,2009-07-01T06:30:00Z,29.4012,-89.0355,1.0,35.299,11111222 
WAVCIS,ioos:station:WAVCIS:CSI16:2,2009-07-01T06:45:00Z,29.4012,-89.0355,1.0,35.321,11111222 
WAVCIS,ioos:station:WAVCIS:CSI16:2,2009-07-01T07:00:00Z,29.4012,-89.0355,1.0,35.336,11111222 
WAVCIS,ioos:station:WAVCIS:CSI16:2,2009-07-01T07:15:00Z,29.4012,-89.0355,1.0,35.358,11111222 
WAVCIS,ioos:station:WAVCIS:CSI16:2,2009-07-01T07:30:00Z,29.4012,-89.0355,1.0,35.366,11111222 
WAVCIS,ioos:station:WAVCIS:CSI16:2,2009-07-01T07:45:00Z,29.4012,-89.0355,1.0,35.373,11111222 
WAVCIS,ioos:station:WAVCIS:CSI16:2,2009-07-01T08:00:00Z,29.4012,-89.0355,1.0,35.381,11111222 
WAVCIS,ioos:station:WAVCIS:CSI16:2,2009-07-01T08:15:00Z,29.4012,-89.0355,1.0,35.377,11111222 
WAVCIS,ioos:station:WAVCIS:CSI16:2,2009-07-01T08:30:00Z,29.4012,-89.0355,1.0,35.373,11111222 
WAVCIS,ioos:station:WAVCIS:CSI16:2,2009-07-01T08:45:00Z,29.4012,-89.0355,1.0,35.374,11111222 
WAVCIS,ioos:station:WAVCIS:CSI16:2,2009-07-01T09:00:00Z,29.4012,-89.0355,1.0,35.358,11111222 
WAVCIS,ioos:station:WAVCIS:CSI16:2,2009-07-01T09:15:00Z,29.4012,-89.0355,1.0,35.386,11111222 
WAVCIS,ioos:station:WAVCIS:CSI16:2,2009-07-01T09:30:00Z,29.4012,-89.0355,1.0,35.386,11111222 
WAVCIS,ioos:station:WAVCIS:CSI16:2,2009-07-01T09:45:00Z,29.4012,-89.0355,1.0,35.402,11111222 
WAVCIS,ioos:station:WAVCIS:CSI16:2,2009-07-01T10:00:00Z,29.4012,-89.0355,1.0,35.416,11111222 
WAVCIS,ioos:station:WAVCIS:CSI16:2,2009-07-01T10:15:00Z,29.4012,-89.0355,1.0,35.411,11111222 
WAVCIS,ioos:station:WAVCIS:CSI16:2,2009-07-01T10:30:00Z,29.4012,-89.0355,1.0,35.412,11111222 
WAVCIS,ioos:station:WAVCIS:CSI16:2,2009-07-01T10:45:00Z,29.4012,-89.0355,1.0,35.406,11111222 
WAVCIS,ioos:station:WAVCIS:CSI16:2,2009-07-01T11:00:00Z,29.4012,-89.0355,1.0,35.412,11111222 
WAVCIS,ioos:station:WAVCIS:CSI16:2,2009-07-01T11:15:00Z,29.4012,-89.0355,1.0,35.399,11111222 
WAVCIS,ioos:station:WAVCIS:CSI16:2,2009-07-01T11:30:00Z,29.4012,-89.0355,1.0,35.41,11111222 
WAVCIS,ioos:station:WAVCIS:CSI16:2,2009-07-01T11:45:00Z,29.4012,-89.0355,1.0,35.417,11111222 
WAVCIS,ioos:station:WAVCIS:CSI16:2,2009-07-01T12:00:00Z,29.4012,-89.0355,1.0,35.409,11111222 
WAVCIS,ioos:station:WAVCIS:CSI16:2,2009-07-01T12:15:00Z,29.4012,-89.0355,1.0,35.413,11111222 
WAVCIS,ioos:station:WAVCIS:CSI16:2,2009-07-01T12:30:00Z,29.4012,-89.0355,1.0,35.412,11111222 
WAVCIS,ioos:station:WAVCIS:CSI16:2,2009-07-01T12:45:00Z,29.4012,-89.0355,1.0,35.411,11111222 
WAVCIS,ioos:station:WAVCIS:CSI16:2,2009-07-01T13:00:00Z,29.4012,-89.0355,1.0,35.414,11111222 
WAVCIS,ioos:station:WAVCIS:CSI16:2,2009-07-01T13:15:00Z,29.4012,-89.0355,1.0,35.409,11111222 
WAVCIS,ioos:station:WAVCIS:CSI16:2,2009-07-01T13:30:00Z,29.4012,-89.0355,1.0,35.407,11111222 
WAVCIS,ioos:station:WAVCIS:CSI16:2,2009-07-01T13:45:00Z,29.4012,-89.0355,1.0,35.404,11111222 
WAVCIS,ioos:station:WAVCIS:CSI16:2,2009-07-01T14:00:00Z,29.4012,-89.0355,1.0,35.404,11111222 
WAVCIS,ioos:station:WAVCIS:CSI16:2,2009-07-01T14:15:00Z,29.4012,-89.0355,1.0,35.402,11111222 
WAVCIS,ioos:station:WAVCIS:CSI16:2,2009-07-01T14:30:00Z,29.4012,-89.0355,1.0,35.402,11111222 
WAVCIS,ioos:station:WAVCIS:CSI16:2,2009-07-01T14:45:00Z,29.4012,-89.0355,1.0,35.403,11111222 
WAVCIS,ioos:station:WAVCIS:CSI16:2,2009-07-01T15:00:00Z,29.4012,-89.0355,1.0,35.402,11111222 
WAVCIS,ioos:station:WAVCIS:CSI16:2,2009-07-01T15:15:00Z,29.4012,-89.0355,1.0,35.394,11111222 
WAVCIS,ioos:station:WAVCIS:CSI16:2,2009-07-01T15:30:00Z,29.4012,-89.0355,1.0,35.386,11111222 
WAVCIS,ioos:station:WAVCIS:CSI16:2,2009-07-01T15:45:00Z,29.4012,-89.0355,1.0,35.385,11111222 
WAVCIS,ioos:station:WAVCIS:CSI16:2,2009-07-01T16:00:00Z,29.4012,-89.0355,1.0,35.38,11111222 
WAVCIS,ioos:station:WAVCIS:CSI16:2,2009-07-01T16:15:00Z,29.4012,-89.0355,1.0,35.381,11111222 
WAVCIS,ioos:station:WAVCIS:CSI16:2,2009-07-01T16:30:00Z,29.4012,-89.0355,1.0,35.372,11111222 
WAVCIS,ioos:station:WAVCIS:CSI16:2,2009-07-01T16:45:00Z,29.4012,-89.0355,1.0,35.38,11111222 
WAVCIS,ioos:station:WAVCIS:CSI16:2,2009-07-01T17:00:00Z,29.4012,-89.0355,1.0,35.376,11111222 
WAVCIS,ioos:station:WAVCIS:CSI16:2,2009-07-01T17:15:00Z,29.4012,-89.0355,1.0,35.392,11111222 
WAVCIS,ioos:station:WAVCIS:CSI16:2,2009-07-01T17:30:00Z,29.4012,-89.0355,1.0,35.384,11111222 
WAVCIS,ioos:station:WAVCIS:CSI16:2,2009-07-01T17:45:00Z,29.4012,-89.0355,1.0,35.387,11111222 
WAVCIS,ioos:station:WAVCIS:CSI16:2,2009-07-01T18:00:00Z,29.4012,-89.0355,1.0,35.371,11111222 
WAVCIS,ioos:station:WAVCIS:CSI16:2,2009-07-01T18:15:00Z,29.4012,-89.0355,1.0,35.358,11111222 
WAVCIS,ioos:station:WAVCIS:CSI16:2,2009-07-01T18:30:00Z,29.4012,-89.0355,1.0,35.357,11111222 
WAVCIS,ioos:station:WAVCIS:CSI16:2,2009-07-01T18:45:00Z,29.4012,-89.0355,1.0,35.359,11111222 
WAVCIS,ioos:station:WAVCIS:CSI16:2,2009-07-01T19:00:00Z,29.4012,-89.0355,1.0,35.356,11111222 
WAVCIS,ioos:station:WAVCIS:CSI16:2,2009-07-01T19:15:00Z,29.4012,-89.0355,1.0,35.352,11111222 
WAVCIS,ioos:station:WAVCIS:CSI16:2,2009-07-01T19:30:00Z,29.4012,-89.0355,1.0,35.341,11111222 
WAVCIS,ioos:station:WAVCIS:CSI16:2,2009-07-01T19:45:00Z,29.4012,-89.0355,1.0,35.331,11111222 
WAVCIS,ioos:station:WAVCIS:CSI16:2,2009-07-01T20:00:00Z,29.4012,-89.0355,1.0,35.328,11111222 
WAVCIS,ioos:station:WAVCIS:CSI16:2,2009-07-01T20:15:00Z,29.4012,-89.0355,1.0,35.317,11111222 
WAVCIS,ioos:station:WAVCIS:CSI16:2,2009-07-01T20:30:00Z,29.4012,-89.0355,1.0,35.285,11111222 
WAVCIS,ioos:station:WAVCIS:CSI16:2,2009-07-01T20:45:00Z,29.4012,-89.0355,1.0,35.291,11111222 
WAVCIS,ioos:station:WAVCIS:CSI16:2,2009-07-01T21:00:00Z,29.4012,-89.0355,1.0,35.285,11111222 
WAVCIS,ioos:station:WAVCIS:CSI16:2,2009-07-01T21:15:00Z,29.4012,-89.0355,1.0,35.26,11111222 
WAVCIS,ioos:station:WAVCIS:CSI16:2,2009-07-01T21:30:00Z,29.4012,-89.0355,1.0,35.212,11111222 
WAVCIS,ioos:station:WAVCIS:CSI16:2,2009-07-01T21:45:00Z,29.4012,-89.0355,1.0,35.164,11111222 
WAVCIS,ioos:station:WAVCIS:CSI16:2,2009-07-01T22:00:00Z,29.4012,-89.0355,1.0,35.143,11111222 
WAVCIS,ioos:station:WAVCIS:CSI16:2,2009-07-01T22:15:00Z,29.4012,-89.0355,1.0,35.162,11111222 
WAVCIS,ioos:station:WAVCIS:CSI16:2,2009-07-01T22:30:00Z,29.4012,-89.0355,1.0,35.189,11111222 
WAVCIS,ioos:station:WAVCIS:CSI16:2,2009-07-01T22:45:00Z,29.4012,-89.0355,1.0,35.208,11111222 
WAVCIS,ioos:station:WAVCIS:CSI16:2,2009-07-01T23:00:00Z,29.4012,-89.0355,1.0,35.237,11111222 
WAVCIS,ioos:station:WAVCIS:CSI16:2,2009-07-01T23:15:00Z,29.4012,-89.0355,1.0,35.239,11111222 
WAVCIS,ioos:station:WAVCIS:CSI16:2,2009-07-01T23:30:00Z,29.4012,-89.0355,1.0,35.233,11111222 
WAVCIS,ioos:station:WAVCIS:CSI16:2,2009-07-01T23:45:00Z,29.4012,-89.0355,1.0,35.228,11111222 
WAVCIS,ioos:station:WAVCIS:CSI16:2,2009-07-02T00:00:00Z,29.4012,-89.0355,1.0,35.184,11111222 
WAVCIS,ioos:station:WAVCIS:CSI16:2,2009-07-02T00:15:00Z,29.4012,-89.0355,1.0,35.123,11111222 
WAVCIS,ioos:station:WAVCIS:CSI16:2,2009-07-02T00:30:00Z,29.4012,-89.0355,1.0,34.832,11111222 
WAVCIS,ioos:station:WAVCIS:CSI16:2,2009-07-02T00:45:00Z,29.4012,-89.0355,1.0,34.603,11111222 
WAVCIS,ioos:station:WAVCIS:CSI16:2,2009-07-02T01:00:00Z,29.4012,-89.0355,1.0,34.081,11111222 
WAVCIS,ioos:station:WAVCIS:CSI16:2,2009-07-02T01:15:00Z,29.4012,-89.0355,1.0,34.027,11111222 
WAVCIS,ioos:station:WAVCIS:CSI16:2,2009-07-02T01:30:00Z,29.4012,-89.0355,1.0,34.915,11111222 
WAVCIS,ioos:station:WAVCIS:CSI16:2,2009-07-02T01:45:00Z,29.4012,-89.0355,1.0,35.182,11111222 
WAVCIS,ioos:station:WAVCIS:CSI16:2,2009-07-02T02:00:00Z,29.4012,-89.0355,1.0,35.057,11111222 
WAVCIS,ioos:station:WAVCIS:CSI16:2,2009-07-02T02:15:00Z,29.4012,-89.0355,1.0,35.226,11111222 
WAVCIS,ioos:station:WAVCIS:CSI16:2,2009-07-02T02:30:00Z,29.4012,-89.0355,1.0,35.238,11111222 
WAVCIS,ioos:station:WAVCIS:CSI16:2,2009-07-02T02:45:00Z,29.4012,-89.0355,1.0,35.245,11111222 
WAVCIS,ioos:station:WAVCIS:CSI16:2,2009-07-02T03:00:00Z,29.4012,-89.0355,1.0,35.148,11111222 
WAVCIS,ioos:station:WAVCIS:CSI16:2,2009-07-02T03:15:00Z,29.4012,-89.0355,1.0,34.968,11111222 
WAVCIS,ioos:station:WAVCIS:CSI16:2,2009-07-02T03:30:00Z,29.4012,-89.0355,1.0,35.068,11111222 
WAVCIS,ioos:station:WAVCIS:CSI16:2,2009-07-02T03:45:00Z,29.4012,-89.0355,1.0,35.124,11111222 
WAVCIS,ioos:station:WAVCIS:CSI16:2,2009-07-02T04:00:00Z,29.4012,-89.0355,1.0,35.003,11111222 
WAVCIS,ioos:station:WAVCIS:CSI16:2,2009-07-02T04:15:00Z,29.4012,-89.0355,1.0,35.082,11111222 
WAVCIS,ioos:station:WAVCIS:CSI16:2,2009-07-02T04:30:00Z,29.4012,-89.0355,1.0,35.056,11111222 
WAVCIS,ioos:station:WAVCIS:CSI16:2,2009-07-02T04:45:00Z,29.4012,-89.0355,1.0,35.105,11111222 
WAVCIS,ioos:station:WAVCIS:CSI16:2,2009-07-02T05:00:00Z,29.4012,-89.0355,1.0,35.211,11111222 
WAVCIS,ioos:station:WAVCIS:CSI16:2,2009-07-02T05:15:00Z,29.4012,-89.0355,1.0,35.184,11111222 
WAVCIS,ioos:station:WAVCIS:CSI16:2,2009-07-02T05:30:00Z,29.4012,-89.0355,1.0,35.281,11111222 
WAVCIS,ioos:station:WAVCIS:CSI16:2,2009-07-02T05:45:00Z,29.4012,-89.0355,1.0,35.262,11111222 
WAVCIS,ioos:station:WAVCIS:CSI16:2,2009-07-02T06:00:00Z,29.4012,-89.0355,1.0,35.248,11111222 
WAVCIS,ioos:station:WAVCIS:CSI16:2,2009-07-02T06:15:00Z,29.4012,-89.0355,1.0,35.242,11111222 
WAVCIS,ioos:station:WAVCIS:CSI16:2,2009-07-02T06:30:00Z,29.4012,-89.0355,1.0,35.223,11111222 
WAVCIS,ioos:station:WAVCIS:CSI16:2,2009-07-02T06:45:00Z,29.4012,-89.0355,1.0,35.26,11111222 
WAVCIS,ioos:station:WAVCIS:CSI16:2,2009-07-02T07:00:00Z,29.4012,-89.0355,1.0,35.278,11111222 
WAVCIS,ioos:station:WAVCIS:CSI16:2,2009-07-02T07:15:00Z,29.4012,-89.0355,1.0,35.291,11111222 
WAVCIS,ioos:station:WAVCIS:CSI16:2,2009-07-02T07:30:00Z,29.4012,-89.0355,1.0,35.316,11111222 
WAVCIS,ioos:station:WAVCIS:CSI16:2,2009-07-02T07:45:00Z,29.4012,-89.0355,1.0,35.284,11111222 
WAVCIS,ioos:station:WAVCIS:CSI16:2,2009-07-02T08:00:00Z,29.4012,-89.0355,1.0,35.274,11111222 
WAVCIS,ioos:station:WAVCIS:CSI16:2,2009-07-02T08:15:00Z,29.4012,-89.0355,1.0,35.285,11111222 
WAVCIS,ioos:station:WAVCIS:CSI16:2,2009-07-02T08:30:00Z,29.4012,-89.0355,1.0,35.312,11111222 
WAVCIS,ioos:station:WAVCIS:CSI16:2,2009-07-02T08:45:00Z,29.4012,-89.0355,1.0,35.256,11111222 
WAVCIS,ioos:station:WAVCIS:CSI16:2,2009-07-02T09:00:00Z,29.4012,-89.0355,1.0,35.31,11111222 
WAVCIS,ioos:station:WAVCIS:CSI16:2,2009-07-02T09:15:00Z,29.4012,-89.0355,1.0,35.288,11111222 
WAVCIS,ioos:station:WAVCIS:CSI16:2,2009-07-02T09:30:00Z,29.4012,-89.0355,1.0,35.294,11111222 
WAVCIS,ioos:station:WAVCIS:CSI16:2,2009-07-02T09:45:00Z,29.4012,-89.0355,1.0,35.23,11111222 
WAVCIS,ioos:station:WAVCIS:CSI16:2,2009-07-02T10:00:00Z,29.4012,-89.0355,1.0,35.245,11111222 
WAVCIS,ioos:station:WAVCIS:CSI16:2,2009-07-02T10:15:00Z,29.4012,-89.0355,1.0,35.265,11111222 
WAVCIS,ioos:station:WAVCIS:CSI16:2,2009-07-02T10:30:00Z,29.4012,-89.0355,1.0,35.214,11111222 
WAVCIS,ioos:station:WAVCIS:CSI16:2,2009-07-02T10:45:00Z,29.4012,-89.0355,1.0,35.23,11111222 
WAVCIS,ioos:station:WAVCIS:CSI16:2,2009-07-02T11:00:00Z,29.4012,-89.0355,1.0,35.264,11111222 
WAVCIS,ioos:station:WAVCIS:CSI16:2,2009-07-02T11:15:00Z,29.4012,-89.0355,1.0,35.249,11111222 
WAVCIS,ioos:station:WAVCIS:CSI16:2,2009-07-02T11:30:00Z,29.4012,-89.0355,1.0,35.247,11111222 
WAVCIS,ioos:station:WAVCIS:CSI16:2,2009-07-02T11:45:00Z,29.4012,-89.0355,1.0,35.269,11111222 
WAVCIS,ioos:station:WAVCIS:CSI16:2,2009-07-02T12:00:00Z,29.4012,-89.0355,1.0,35.26,11111222 
WAVCIS,ioos:station:WAVCIS:CSI16:2,2009-07-02T12:15:00Z,29.4012,-89.0355,1.0,35.279,11111222 
WAVCIS,ioos:station:WAVCIS:CSI16:2,2009-07-02T12:30:00Z,29.4012,-89.0355,1.0,35.269,11111222 
WAVCIS,ioos:station:WAVCIS:CSI16:2,2009-07-02T12:45:00Z,29.4012,-89.0355,1.0,35.25,11111222 
WAVCIS,ioos:station:WAVCIS:CSI16:2,2009-07-02T13:00:00Z,29.4012,-89.0355,1.0,35.225,11111222 
WAVCIS,ioos:station:WAVCIS:CSI16:2,2009-07-02T13:15:00Z,29.4012,-89.0355,1.0,35.246,11111222 
WAVCIS,ioos:station:WAVCIS:CSI16:2,2009-07-02T13:30:00Z,29.4012,-89.0355,1.0,35.239,11111222 
WAVCIS,ioos:station:WAVCIS:CSI16:2,2009-07-02T13:45:00Z,29.4012,-89.0355,1.0,35.231,11111222 
WAVCIS,ioos:station:WAVCIS:CSI16:2,2009-07-02T14:00:00Z,29.4012,-89.0355,1.0,35.292,11111222 
WAVCIS,ioos:station:WAVCIS:CSI16:2,2009-07-02T14:15:00Z,29.4012,-89.0355,1.0,35.233,11111222 
WAVCIS,ioos:station:WAVCIS:CSI16:2,2009-07-02T14:30:00Z,29.4012,-89.0355,1.0,35.242,11111222 
WAVCIS,ioos:station:WAVCIS:CSI16:2,2009-07-02T14:45:00Z,29.4012,-89.0355,1.0,35.215,11111222 
WAVCIS,ioos:station:WAVCIS:CSI16:2,2009-07-02T15:00:00Z,29.4012,-89.0355,1.0,35.322,11111222 
WAVCIS,ioos:station:WAVCIS:CSI16:2,2009-07-02T15:15:00Z,29.4012,-89.0355,1.0,35.265,11111222 
WAVCIS,ioos:station:WAVCIS:CSI16:2,2009-07-02T15:30:00Z,29.4012,-89.0355,1.0,35.246,11111222 
WAVCIS,ioos:station:WAVCIS:CSI16:2,2009-07-02T15:45:00Z,29.4012,-89.0355,1.0,35.234,11111222 
WAVCIS,ioos:station:WAVCIS:CSI16:2,2009-07-02T16:00:00Z,29.4012,-89.0355,1.0,35.148,11111222 
WAVCIS,ioos:station:WAVCIS:CSI16:2,2009-07-02T16:15:00Z,29.4012,-89.0355,1.0,35.199,11111222 
WAVCIS,ioos:station:WAVCIS:CSI16:2,2009-07-02T16:30:00Z,29.4012,-89.0355,1.0,35.287,11111222 
WAVCIS,ioos:station:WAVCIS:CSI16:2,2009-07-02T16:45:00Z,29.4012,-89.0355,1.0,35.256,11111222 
WAVCIS,ioos:station:WAVCIS:CSI16:2,2009-07-02T17:00:00Z,29.4012,-89.0355,1.0,35.317,11111222 
WAVCIS,ioos:station:WAVCIS:CSI16:2,2009-07-02T17:15:00Z,29.4012,-89.0355,1.0,35.383,11111222 
WAVCIS,ioos:station:WAVCIS:CSI16:2,2009-07-02T17:30:00Z,29.4012,-89.0355,1.0,35.342,11111222 
WAVCIS,ioos:station:WAVCIS:CSI16:2,2009-07-02T17:45:00Z,29.4012,-89.0355,1.0,35.349,11111222 
WAVCIS,ioos:station:WAVCIS:CSI16:2,2009-07-02T18:00:00Z,29.4012,-89.0355,1.0,35.303,11111222 
WAVCIS,ioos:station:WAVCIS:CSI16:2,2009-07-02T18:15:00Z,29.4012,-89.0355,1.0,35.413,11111222 
WAVCIS,ioos:station:WAVCIS:CSI16:2,2009-07-02T18:30:00Z,29.4012,-89.0355,1.0,35.299,11111222 
WAVCIS,ioos:station:WAVCIS:CSI16:2,2009-07-02T18:45:00Z,29.4012,-89.0355,1.0,35.346,11111222 
WAVCIS,ioos:station:WAVCIS:CSI16:2,2009-07-02T19:00:00Z,29.4012,-89.0355,1.0,35.256,11111222 
WAVCIS,ioos:station:WAVCIS:CSI16:2,2009-07-02T19:15:00Z,29.4012,-89.0355,1.0,35.403,11111222 
WAVCIS,ioos:station:WAVCIS:CSI16:2,2009-07-02T19:30:00Z,29.4012,-89.0355,1.0,35.296,11111222 
WAVCIS,ioos:station:WAVCIS:CSI16:2,2009-07-02T19:45:00Z,29.4012,-89.0355,1.0,35.405,11111222 
WAVCIS,ioos:station:WAVCIS:CSI16:2,2009-07-02T20:00:00Z,29.4012,-89.0355,1.0,35.411,11111222 
WAVCIS,ioos:station:WAVCIS:CSI16:2,2009-07-02T20:15:00Z,29.4012,-89.0355,1.0,35.402,11111222 
WAVCIS,ioos:station:WAVCIS:CSI16:2,2009-07-02T20:30:00Z,29.4012,-89.0355,1.0,35.383,11111222 
WAVCIS,ioos:station:WAVCIS:CSI16:2,2009-07-02T20:45:00Z,29.4012,-89.0355,1.0,35.364,11111222 
WAVCIS,ioos:station:WAVCIS:CSI16:2,2009-07-02T21:00:00Z,29.4012,-89.0355,1.0,35.329,11111222 
WAVCIS,ioos:station:WAVCIS:CSI16:2,2009-07-02T21:15:00Z,29.4012,-89.0355,1.0,35.354,11111222 
WAVCIS,ioos:station:WAVCIS:CSI16:2,2009-07-02T21:30:00Z,29.4012,-89.0355,1.0,35.281,11111222 
WAVCIS,ioos:station:WAVCIS:CSI16:2,2009-07-02T21:45:00Z,29.4012,-89.0355,1.0,35.361,11111222 
WAVCIS,ioos:station:WAVCIS:CSI16:2,2009-07-02T22:00:00Z,29.4012,-89.0355,1.0,35.356,11111222 
WAVCIS,ioos:station:WAVCIS:CSI16:2,2009-07-02T22:15:00Z,29.4012,-89.0355,1.0,35.349,11111222 
WAVCIS,ioos:station:WAVCIS:CSI16:2,2009-07-02T22:30:00Z,29.4012,-89.0355,1.0,35.343,11111222 
WAVCIS,ioos:station:WAVCIS:CSI16:2,2009-07-02T22:45:00Z,29.4012,-89.0355,1.0,35.332,11111222 
WAVCIS,ioos:station:WAVCIS:CSI16:2,2009-07-02T23:00:00Z,29.4012,-89.0355,1.0,35.34,11111222 
WAVCIS,ioos:station:WAVCIS:CSI16:2,2009-07-02T23:15:00Z,29.4012,-89.0355,1.0,35.334,11111222 
WAVCIS,ioos:station:WAVCIS:CSI16:2,2009-07-02T23:30:00Z,29.4012,-89.0355,1.0,35.316,11111222 
WAVCIS,ioos:station:WAVCIS:CSI16:2,2009-07-02T23:45:00Z,29.4012,-89.0355,1.0,35.327,11111222 
WAVCIS,ioos:station:WAVCIS:CSI16:2,2009-07-03T00:00:00Z,29.4012,-89.0355,1.0,35.324,11111222 
WAVCIS,ioos:station:WAVCIS:CSI16:2,2009-07-03T00:15:00Z,29.4012,-89.0355,1.0,35.288,11111222 
WAVCIS,ioos:station:WAVCIS:CSI16:2,2009-07-03T00:30:00Z,29.4012,-89.0355,1.0,35.277,11111222 
WAVCIS,ioos:station:WAVCIS:CSI16:2,2009-07-03T00:45:00Z,29.4012,-89.0355,1.0,35.29,11111222 
WAVCIS,ioos:station:WAVCIS:CSI16:2,2009-07-03T01:00:00Z,29.4012,-89.0355,1.0,35.332,11111222 
WAVCIS,ioos:station:WAVCIS:CSI16:2,2009-07-03T01:15:00Z,29.4012,-89.0355,1.0,35.332,11111222 
WAVCIS,ioos:station:WAVCIS:CSI16:2,2009-07-03T01:30:00Z,29.4012,-89.0355,1.0,35.347,11111222 
WAVCIS,ioos:station:WAVCIS:CSI16:2,2009-07-03T01:45:00Z,29.4012,-89.0355,1.0,35.266,11111222 
WAVCIS,ioos:station:WAVCIS:CSI16:2,2009-07-03T02:00:00Z,29.4012,-89.0355,1.0,35.277,11111222 
WAVCIS,ioos:station:WAVCIS:CSI16:2,2009-07-03T02:15:00Z,29.4012,-89.0355,1.0,35.267,11111222 
WAVCIS,ioos:station:WAVCIS:CSI16:2,2009-07-03T02:30:00Z,29.4012,-89.0355,1.0,35.259,11111222 
WAVCIS,ioos:station:WAVCIS:CSI16:2,2009-07-03T02:45:00Z,29.4012,-89.0355,1.0,35.297,11111222 
WAVCIS,ioos:station:WAVCIS:CSI16:2,2009-07-03T03:00:00Z,29.4012,-89.0355,1.0,35.386,11111222 
WAVCIS,ioos:station:WAVCIS:CSI16:2,2009-07-03T03:15:00Z,29.4012,-89.0355,1.0,35.239,11111222 
WAVCIS,ioos:station:WAVCIS:CSI16:2,2009-07-03T03:30:00Z,29.4012,-89.0355,1.0,35.245,11111222 
WAVCIS,ioos:station:WAVCIS:CSI16:2,2009-07-03T03:45:00Z,29.4012,-89.0355,1.0,35.234,11111222 
WAVCIS,ioos:station:WAVCIS:CSI16:2,2009-07-03T04:00:00Z,29.4012,-89.0355,1.0,35.215,11111222 
WAVCIS,ioos:station:WAVCIS:CSI16:2,2009-07-03T04:15:00Z,29.4012,-89.0355,1.0,35.232,11111222 
WAVCIS,ioos:station:WAVCIS:CSI16:2,2009-07-03T04:30:00Z,29.4012,-89.0355,1.0,35.228,11111222 
WAVCIS,ioos:station:WAVCIS:CSI16:2,2009-07-03T04:45:00Z,29.4012,-89.0355,1.0,35.197,11111222 
WAVCIS,ioos:station:WAVCIS:CSI16:2,2009-07-03T05:00:00Z,29.4012,-89.0355,1.0,35.263,11111222 
WAVCIS,ioos:station:WAVCIS:CSI16:2,2009-07-03T05:15:00Z,29.4012,-89.0355,1.0,35.312,11111222 
WAVCIS,ioos:station:WAVCIS:CSI16:2,2009-07-03T05:30:00Z,29.4012,-89.0355,1.0,35.334,11111222 
WAVCIS,ioos:station:WAVCIS:CSI16:2,2009-07-03T05:45:00Z,29.4012,-89.0355,1.0,35.315,11111222 
WAVCIS,ioos:station:WAVCIS:CSI16:2,2009-07-03T06:00:00Z,29.4012,-89.0355,1.0,35.356,11111222 
WAVCIS,ioos:station:WAVCIS:CSI16:2,2009-07-03T06:15:00Z,29.4012,-89.0355,1.0,35.255,11111222 
WAVCIS,ioos:station:WAVCIS:CSI16:2,2009-07-03T06:30:00Z,29.4012,-89.0355,1.0,35.227,11111222 
WAVCIS,ioos:station:WAVCIS:CSI16:2,2009-07-03T06:45:00Z,29.4012,-89.0355,1.0,35.238,11111222 
WAVCIS,ioos:station:WAVCIS:CSI16:2,2009-07-03T07:00:00Z,29.4012,-89.0355,1.0,35.231,11111222 
WAVCIS,ioos:station:WAVCIS:CSI16:2,2009-07-03T07:15:00Z,29.4012,-89.0355,1.0,35.229,11111222 
WAVCIS,ioos:station:WAVCIS:CSI16:2,2009-07-03T07:30:00Z,29.4012,-89.0355,1.0,35.286,11111222 
WAVCIS,ioos:station:WAVCIS:CSI16:2,2009-07-03T07:45:00Z,29.4012,-89.0355,1.0,35.185,11111222 
WAVCIS,ioos:station:WAVCIS:CSI16:2,2009-07-03T08:00:00Z,29.4012,-89.0355,1.0,35.204,11111222 
WAVCIS,ioos:station:WAVCIS:CSI16:2,2009-07-03T08:15:00Z,29.4012,-89.0355,1.0,35.214,11111222 
WAVCIS,ioos:station:WAVCIS:CSI16:2,2009-07-03T08:30:00Z,29.4012,-89.0355,1.0,35.295,11111222 
WAVCIS,ioos:station:WAVCIS:CSI16:2,2009-07-03T08:45:00Z,29.4012,-89.0355,1.0,35.233,11111222 
WAVCIS,ioos:station:WAVCIS:CSI16:2,2009-07-03T09:00:00Z,29.4012,-89.0355,1.0,35.285,11111222 
WAVCIS,ioos:station:WAVCIS:CSI16:2,2009-07-03T09:15:00Z,29.4012,-89.0355,1.0,35.146,11111222 
WAVCIS,ioos:station:WAVCIS:CSI16:2,2009-07-03T09:30:00Z,29.4012,-89.0355,1.0,35.232,11111222 
WAVCIS,ioos:station:WAVCIS:CSI16:2,2009-07-03T09:45:00Z,29.4012,-89.0355,1.0,35.218,11111222 
WAVCIS,ioos:station:WAVCIS:CSI16:2,2009-07-03T10:00:00Z,29.4012,-89.0355,1.0,35.209,11111222 
WAVCIS,ioos:station:WAVCIS:CSI16:2,2009-07-03T10:15:00Z,29.4012,-89.0355,1.0,35.22,11111222 
WAVCIS,ioos:station:WAVCIS:CSI16:2,2009-07-03T10:30:00Z,29.4012,-89.0355,1.0,35.23,11111222 
WAVCIS,ioos:station:WAVCIS:CSI16:2,2009-07-03T10:45:00Z,29.4012,-89.0355,1.0,35.234,11111222 
WAVCIS,ioos:station:WAVCIS:CSI16:2,2009-07-03T11:00:00Z,29.4012,-89.0355,1.0,35.214,11111222 
WAVCIS,ioos:station:WAVCIS:CSI16:2,2009-07-03T11:15:00Z,29.4012,-89.0355,1.0,35.206,11111222 
WAVCIS,ioos:station:WAVCIS:CSI16:2,2009-07-03T11:30:00Z,29.4012,-89.0355,1.0,35.217,11111222 
WAVCIS,ioos:station:WAVCIS:CSI16:2,2009-07-03T11:45:00Z,29.4012,-89.0355,1.0,35.209,11111222 
WAVCIS,ioos:station:WAVCIS:CSI16:2,2009-07-03T12:00:00Z,29.4012,-89.0355,1.0,35.204,11111222 
WAVCIS,ioos:station:WAVCIS:CSI16:2,2009-07-03T12:15:00Z,29.4012,-89.0355,1.0,35.203,11111222 
WAVCIS,ioos:station:WAVCIS:CSI16:2,2009-07-03T12:30:00Z,29.4012,-89.0355,1.0,35.255,11111222 
WAVCIS,ioos:station:WAVCIS:CSI16:2,2009-07-03T12:45:00Z,29.4012,-89.0355,1.0,35.225,11111222 
WAVCIS,ioos:station:WAVCIS:CSI16:2,2009-07-03T13:00:00Z,29.4012,-89.0355,1.0,35.214,11111222 
WAVCIS,ioos:station:WAVCIS:CSI16:2,2009-07-03T13:15:00Z,29.4012,-89.0355,1.0,35.286,11111222 
WAVCIS,ioos:station:WAVCIS:CSI16:2,2009-07-03T13:30:00Z,29.4012,-89.0355,1.0,35.198,11111222 
WAVCIS,ioos:station:WAVCIS:CSI16:2,2009-07-03T13:45:00Z,29.4012,-89.0355,1.0,35.204,11111222 
WAVCIS,ioos:station:WAVCIS:CSI16:2,2009-07-03T14:00:00Z,29.4012,-89.0355,1.0,35.196,11111222 
WAVCIS,ioos:station:WAVCIS:CSI16:2,2009-07-03T14:15:00Z,29.4012,-89.0355,1.0,35.2,11111222 
WAVCIS,ioos:station:WAVCIS:CSI16:2,2009-07-03T14:30:00Z,29.4012,-89.0355,1.0,35.167,11111222 
WAVCIS,ioos:station:WAVCIS:CSI16:2,2009-07-03T14:45:00Z,29.4012,-89.0355,1.0,35.199,11111222 
WAVCIS,ioos:station:WAVCIS:CSI16:2,2009-07-03T15:00:00Z,29.4012,-89.0355,1.0,35.216,11111222 
WAVCIS,ioos:station:WAVCIS:CSI16:2,2009-07-03T15:15:00Z,29.4012,-89.0355,1.0,35.183,11111222 